owner,sensor,date,latitude,longitude,vertical_datum,sea_water_practical_salinity,qcFlag 
TABS,ioos:station:wmo:42051:1,2014-11-01T00:00:00Z,29.6350,-93.6417,2.0,27.6274,11111222 
TABS,ioos:station:wmo:42051:1,2014-11-01T00:30:00Z,29.6350,-93.6417,2.0,27.6437,11111222 
TABS,ioos:station:wmo:42051:1,2014-11-01T01:00:00Z,29.6350,-93.6417,2.0,27.6172,11111222 
TABS,ioos:station:wmo:42051:1,2014-11-01T01:30:00Z,29.6350,-93.6417,2.0,27.645,11111222 
TABS,ioos:station:wmo:42051:1,2014-11-01T02:00:00Z,29.6350,-93.6417,2.0,27.6926,11111222 
TABS,ioos:station:wmo:42051:1,2014-11-01T02:30:00Z,29.6350,-93.6417,2.0,27.6797,11111222 
TABS,ioos:station:wmo:42051:1,2014-11-01T03:00:00Z,29.6350,-93.6417,2.0,27.6813,11111222 
TABS,ioos:station:wmo:42051:1,2014-11-01T03:30:00Z,29.6350,-93.6417,2.0,27.6846,11111222 
TABS,ioos:station:wmo:42051:1,2014-11-01T04:00:00Z,29.6350,-93.6417,2.0,27.7105,11111222 
TABS,ioos:station:wmo:42051:1,2014-11-01T04:30:00Z,29.6350,-93.6417,2.0,27.6987,11111222 
TABS,ioos:station:wmo:42051:1,2014-11-01T05:00:00Z,29.6350,-93.6417,2.0,27.6874,11111222 
TABS,ioos:station:wmo:42051:1,2014-11-01T05:30:00Z,29.6350,-93.6417,2.0,27.7125,11111222 
TABS,ioos:station:wmo:42051:1,2014-11-01T06:00:00Z,29.6350,-93.6417,2.0,27.6989,11111222 
TABS,ioos:station:wmo:42051:1,2014-11-01T06:30:00Z,29.6350,-93.6417,2.0,27.7013,11111222 
TABS,ioos:station:wmo:42051:1,2014-11-01T07:00:00Z,29.6350,-93.6417,2.0,27.6658,11111222 
TABS,ioos:station:wmo:42051:1,2014-11-01T07:30:00Z,29.6350,-93.6417,2.0,27.6842,11111222 
TABS,ioos:station:wmo:42051:1,2014-11-01T08:00:00Z,29.6350,-93.6417,2.0,27.6919,11111222 
TABS,ioos:station:wmo:42051:1,2014-11-01T08:30:00Z,29.6350,-93.6417,2.0,27.6867,11111222 
TABS,ioos:station:wmo:42051:1,2014-11-01T09:00:00Z,29.6350,-93.6417,2.0,27.6714,11111222 
TABS,ioos:station:wmo:42051:1,2014-11-01T09:30:00Z,29.6350,-93.6417,2.0,27.6944,11111222 
TABS,ioos:station:wmo:42051:1,2014-11-01T10:00:00Z,29.6350,-93.6417,2.0,27.7016,11111222 
TABS,ioos:station:wmo:42051:1,2014-11-01T10:30:00Z,29.6350,-93.6417,2.0,27.6857,11111222 
TABS,ioos:station:wmo:42051:1,2014-11-01T11:00:00Z,29.6350,-93.6417,2.0,27.7163,11111222 
TABS,ioos:station:wmo:42051:1,2014-11-01T11:30:00Z,29.6350,-93.6417,2.0,27.6988,11111222 
TABS,ioos:station:wmo:42051:1,2014-11-01T12:00:00Z,29.6350,-93.6417,2.0,27.7179,11111222 
TABS,ioos:station:wmo:42051:1,2014-11-01T12:30:00Z,29.6350,-93.6417,2.0,27.7315,11111222 
TABS,ioos:station:wmo:42051:1,2014-11-01T13:00:00Z,29.6350,-93.6417,2.0,27.7324,11111222 
TABS,ioos:station:wmo:42051:1,2014-11-01T13:30:00Z,29.6350,-93.6417,2.0,27.6863,11111222 
TABS,ioos:station:wmo:42051:1,2014-11-01T14:00:00Z,29.6350,-93.6417,2.0,27.6823,11111222 
TABS,ioos:station:wmo:42051:1,2014-11-01T14:30:00Z,29.6350,-93.6417,2.0,27.6973,11111222 
TABS,ioos:station:wmo:42051:1,2014-11-01T15:00:00Z,29.6350,-93.6417,2.0,27.7093,11111222 
TABS,ioos:station:wmo:42051:1,2014-11-01T15:30:00Z,29.6350,-93.6417,2.0,27.7133,11111222 
TABS,ioos:station:wmo:42051:1,2014-11-01T16:00:00Z,29.6350,-93.6417,2.0,27.7244,11111222 
TABS,ioos:station:wmo:42051:1,2014-11-01T16:30:00Z,29.6350,-93.6417,2.0,27.704,11111222 
TABS,ioos:station:wmo:42051:1,2014-11-01T17:00:00Z,29.6350,-93.6417,2.0,27.6728,11111222 
TABS,ioos:station:wmo:42051:1,2014-11-01T17:30:00Z,29.6350,-93.6417,2.0,27.6523,11111222 
TABS,ioos:station:wmo:42051:1,2014-11-01T18:00:00Z,29.6350,-93.6417,2.0,27.6115,11111222 
TABS,ioos:station:wmo:42051:1,2014-11-01T18:30:00Z,29.6350,-93.6417,2.0,27.5743,11111222 
TABS,ioos:station:wmo:42051:1,2014-11-01T19:00:00Z,29.6350,-93.6417,2.0,27.5504,11111222 
TABS,ioos:station:wmo:42051:1,2014-11-01T19:30:00Z,29.6350,-93.6417,2.0,27.5301,11111222 
TABS,ioos:station:wmo:42051:1,2014-11-01T20:00:00Z,29.6350,-93.6417,2.0,27.5305,11111222 
TABS,ioos:station:wmo:42051:1,2014-11-01T20:30:00Z,29.6350,-93.6417,2.0,27.5295,11111222 
TABS,ioos:station:wmo:42051:1,2014-11-01T21:00:00Z,29.6350,-93.6417,2.0,27.5161,11111222 
TABS,ioos:station:wmo:42051:1,2014-11-01T21:30:00Z,29.6350,-93.6417,2.0,27.5109,11111222 
TABS,ioos:station:wmo:42051:1,2014-11-01T22:00:00Z,29.6350,-93.6417,2.0,27.5182,11111222 
TABS,ioos:station:wmo:42051:1,2014-11-01T22:30:00Z,29.6350,-93.6417,2.0,27.5367,11111222 
TABS,ioos:station:wmo:42051:1,2014-11-01T23:00:00Z,29.6350,-93.6417,2.0,27.5444,11111222 
TABS,ioos:station:wmo:42051:1,2014-11-01T23:30:00Z,29.6350,-93.6417,2.0,27.5723,11111222 
TABS,ioos:station:wmo:42051:1,2014-11-02T00:00:00Z,29.6350,-93.6417,2.0,27.5729,11111222 
TABS,ioos:station:wmo:42051:1,2014-11-02T00:30:00Z,29.6350,-93.6417,2.0,27.5974,11111222 
TABS,ioos:station:wmo:42051:1,2014-11-02T01:00:00Z,29.6350,-93.6417,2.0,27.5895,11111222 
TABS,ioos:station:wmo:42051:1,2014-11-02T01:30:00Z,29.6350,-93.6417,2.0,27.5983,11111222 
TABS,ioos:station:wmo:42051:1,2014-11-02T02:00:00Z,29.6350,-93.6417,2.0,27.6022,11111222 
TABS,ioos:station:wmo:42051:1,2014-11-02T02:30:00Z,29.6350,-93.6417,2.0,27.6129,11111222 
TABS,ioos:station:wmo:42051:1,2014-11-02T03:00:00Z,29.6350,-93.6417,2.0,27.6422,11111222 
TABS,ioos:station:wmo:42051:1,2014-11-02T03:30:00Z,29.6350,-93.6417,2.0,27.6592,11111222 
TABS,ioos:station:wmo:42051:1,2014-11-02T04:00:00Z,29.6350,-93.6417,2.0,27.6674,11111222 
TABS,ioos:station:wmo:42051:1,2014-11-02T04:30:00Z,29.6350,-93.6417,2.0,27.6534,11111222 
TABS,ioos:station:wmo:42051:1,2014-11-02T05:00:00Z,29.6350,-93.6417,2.0,27.6752,11111222 
TABS,ioos:station:wmo:42051:1,2014-11-02T05:30:00Z,29.6350,-93.6417,2.0,27.6861,11111222 
TABS,ioos:station:wmo:42051:1,2014-11-02T06:00:00Z,29.6350,-93.6417,2.0,27.6984,11111222 
TABS,ioos:station:wmo:42051:1,2014-11-02T06:30:00Z,29.6350,-93.6417,2.0,27.7067,11111222 
TABS,ioos:station:wmo:42051:1,2014-11-02T07:00:00Z,29.6350,-93.6417,2.0,27.6619,11111222 
TABS,ioos:station:wmo:42051:1,2014-11-02T07:30:00Z,29.6350,-93.6417,2.0,27.6535,11111222 
TABS,ioos:station:wmo:42051:1,2014-11-02T08:00:00Z,29.6350,-93.6417,2.0,27.708,11111222 
TABS,ioos:station:wmo:42051:1,2014-11-02T08:30:00Z,29.6350,-93.6417,2.0,27.6683,11111222 
TABS,ioos:station:wmo:42051:1,2014-11-02T09:00:00Z,29.6350,-93.6417,2.0,27.6534,11111222 
TABS,ioos:station:wmo:42051:1,2014-11-02T09:30:00Z,29.6350,-93.6417,2.0,27.6406,11111222 
TABS,ioos:station:wmo:42051:1,2014-11-02T10:00:00Z,29.6350,-93.6417,2.0,27.6831,11111222 
TABS,ioos:station:wmo:42051:1,2014-11-02T10:30:00Z,29.6350,-93.6417,2.0,27.6498,11111222 
TABS,ioos:station:wmo:42051:1,2014-11-02T11:00:00Z,29.6350,-93.6417,2.0,27.6437,11111222 
TABS,ioos:station:wmo:42051:1,2014-11-02T11:30:00Z,29.6350,-93.6417,2.0,27.6781,11111222 
TABS,ioos:station:wmo:42051:1,2014-11-02T12:00:00Z,29.6350,-93.6417,2.0,27.6396,11111222 
TABS,ioos:station:wmo:42051:1,2014-11-02T12:30:00Z,29.6350,-93.6417,2.0,27.6279,11111222 
TABS,ioos:station:wmo:42051:1,2014-11-02T13:00:00Z,29.6350,-93.6417,2.0,27.6102,11111222 
TABS,ioos:station:wmo:42051:1,2014-11-02T13:30:00Z,29.6350,-93.6417,2.0,27.6566,11111222 
TABS,ioos:station:wmo:42051:1,2014-11-02T14:00:00Z,29.6350,-93.6417,2.0,27.6548,11111222 
TABS,ioos:station:wmo:42051:1,2014-11-02T14:30:00Z,29.6350,-93.6417,2.0,27.6568,11111222 
TABS,ioos:station:wmo:42051:1,2014-11-02T15:00:00Z,29.6350,-93.6417,2.0,27.6637,11111222 
TABS,ioos:station:wmo:42051:1,2014-11-02T15:30:00Z,29.6350,-93.6417,2.0,27.6534,11111222 
TABS,ioos:station:wmo:42051:1,2014-11-02T16:00:00Z,29.6350,-93.6417,2.0,27.668,11111222 
TABS,ioos:station:wmo:42051:1,2014-11-02T16:30:00Z,29.6350,-93.6417,2.0,27.5828,11111222 
TABS,ioos:station:wmo:42051:1,2014-11-02T17:00:00Z,29.6350,-93.6417,2.0,27.5462,11111222 
TABS,ioos:station:wmo:42051:1,2014-11-02T17:30:00Z,29.6350,-93.6417,2.0,27.5068,11111222 
TABS,ioos:station:wmo:42051:1,2014-11-02T18:00:00Z,29.6350,-93.6417,2.0,27.556,11111222 
TABS,ioos:station:wmo:42051:1,2014-11-02T18:30:00Z,29.6350,-93.6417,2.0,27.5477,11111222 
TABS,ioos:station:wmo:42051:1,2014-11-02T19:00:00Z,29.6350,-93.6417,2.0,27.5574,11111222 
TABS,ioos:station:wmo:42051:1,2014-11-02T19:30:00Z,29.6350,-93.6417,2.0,27.5396,11111222 
TABS,ioos:station:wmo:42051:1,2014-11-02T20:00:00Z,29.6350,-93.6417,2.0,27.5027,11111222 
TABS,ioos:station:wmo:42051:1,2014-11-02T20:30:00Z,29.6350,-93.6417,2.0,27.4718,11111222 
TABS,ioos:station:wmo:42051:1,2014-11-02T21:00:00Z,29.6350,-93.6417,2.0,27.4302,11111222 
TABS,ioos:station:wmo:42051:1,2014-11-02T21:30:00Z,29.6350,-93.6417,2.0,27.4171,11111222 
TABS,ioos:station:wmo:42051:1,2014-11-02T22:00:00Z,29.6350,-93.6417,2.0,27.4042,11111222 
TABS,ioos:station:wmo:42051:1,2014-11-02T22:30:00Z,29.6350,-93.6417,2.0,27.3918,11111222 
TABS,ioos:station:wmo:42051:1,2014-11-02T23:00:00Z,29.6350,-93.6417,2.0,27.4181,11111222 
TABS,ioos:station:wmo:42051:1,2014-11-02T23:30:00Z,29.6350,-93.6417,2.0,27.4475,11111222 
TABS,ioos:station:wmo:42051:1,2014-11-03T00:00:00Z,29.6350,-93.6417,2.0,27.531,11111222 
TABS,ioos:station:wmo:42051:1,2014-11-03T00:30:00Z,29.6350,-93.6417,2.0,27.4844,11111222 
TABS,ioos:station:wmo:42051:1,2014-11-03T01:00:00Z,29.6350,-93.6417,2.0,27.4854,11111222 
TABS,ioos:station:wmo:42051:1,2014-11-03T01:30:00Z,29.6350,-93.6417,2.0,27.53,11111222 
TABS,ioos:station:wmo:42051:1,2014-11-03T02:00:00Z,29.6350,-93.6417,2.0,27.5699,11111222 
TABS,ioos:station:wmo:42051:1,2014-11-03T02:30:00Z,29.6350,-93.6417,2.0,27.5854,11111222 
TABS,ioos:station:wmo:42051:1,2014-11-03T03:00:00Z,29.6350,-93.6417,2.0,27.59,11111222 
TABS,ioos:station:wmo:42051:1,2014-11-03T03:30:00Z,29.6350,-93.6417,2.0,27.5117,11111222 
TABS,ioos:station:wmo:42051:1,2014-11-03T04:00:00Z,29.6350,-93.6417,2.0,27.4992,11111222 
TABS,ioos:station:wmo:42051:1,2014-11-03T04:30:00Z,29.6350,-93.6417,2.0,27.4679,11111222 
TABS,ioos:station:wmo:42051:1,2014-11-03T05:00:00Z,29.6350,-93.6417,2.0,27.4208,11111222 
TABS,ioos:station:wmo:42051:1,2014-11-03T05:30:00Z,29.6350,-93.6417,2.0,27.3951,11111222 
TABS,ioos:station:wmo:42051:1,2014-11-03T06:00:00Z,29.6350,-93.6417,2.0,27.3712,11111222 
TABS,ioos:station:wmo:42051:1,2014-11-03T06:30:00Z,29.6350,-93.6417,2.0,27.3496,11111222 
TABS,ioos:station:wmo:42051:1,2014-11-03T07:00:00Z,29.6350,-93.6417,2.0,27.3447,11111222 
TABS,ioos:station:wmo:42051:1,2014-11-03T07:30:00Z,29.6350,-93.6417,2.0,27.3423,11111222 
TABS,ioos:station:wmo:42051:1,2014-11-03T08:00:00Z,29.6350,-93.6417,2.0,27.3206,11111222 
TABS,ioos:station:wmo:42051:1,2014-11-03T08:30:00Z,29.6350,-93.6417,2.0,27.3146,11111222 
TABS,ioos:station:wmo:42051:1,2014-11-03T09:00:00Z,29.6350,-93.6417,2.0,27.3068,11111222 
TABS,ioos:station:wmo:42051:1,2014-11-03T09:30:00Z,29.6350,-93.6417,2.0,27.2955,11111222 
TABS,ioos:station:wmo:42051:1,2014-11-03T10:00:00Z,29.6350,-93.6417,2.0,27.2842,11111222 
TABS,ioos:station:wmo:42051:1,2014-11-03T10:30:00Z,29.6350,-93.6417,2.0,27.2753,11111222 
TABS,ioos:station:wmo:42051:1,2014-11-03T11:00:00Z,29.6350,-93.6417,2.0,27.2609,11111222 
TABS,ioos:station:wmo:42051:1,2014-11-03T11:30:00Z,29.6350,-93.6417,2.0,27.2731,11111222 
TABS,ioos:station:wmo:42051:1,2014-11-03T12:00:00Z,29.6350,-93.6417,2.0,27.2899,11111222 
TABS,ioos:station:wmo:42051:1,2014-11-03T12:30:00Z,29.6350,-93.6417,2.0,27.339,11111222 
TABS,ioos:station:wmo:42051:1,2014-11-03T13:00:00Z,29.6350,-93.6417,2.0,27.4482,11111222 
TABS,ioos:station:wmo:42051:1,2014-11-03T13:30:00Z,29.6350,-93.6417,2.0,27.4571,11111222 
TABS,ioos:station:wmo:42051:1,2014-11-03T14:00:00Z,29.6350,-93.6417,2.0,27.6186,11111222 
TABS,ioos:station:wmo:42051:1,2014-11-03T14:30:00Z,29.6350,-93.6417,2.0,27.7445,11111222 
TABS,ioos:station:wmo:42051:1,2014-11-03T15:00:00Z,29.6350,-93.6417,2.0,27.8029,11111222 
TABS,ioos:station:wmo:42051:1,2014-11-03T15:30:00Z,29.6350,-93.6417,2.0,27.7703,11111222 
TABS,ioos:station:wmo:42051:1,2014-11-03T16:00:00Z,29.6350,-93.6417,2.0,27.8786,11111222 
TABS,ioos:station:wmo:42051:1,2014-11-03T16:30:00Z,29.6350,-93.6417,2.0,27.9204,11111222 
TABS,ioos:station:wmo:42051:1,2014-11-03T17:00:00Z,29.6350,-93.6417,2.0,27.9853,11111222 
TABS,ioos:station:wmo:42051:1,2014-11-03T17:30:00Z,29.6350,-93.6417,2.0,27.984,11111222 
TABS,ioos:station:wmo:42051:1,2014-11-03T18:00:00Z,29.6350,-93.6417,2.0,28.025,11111222 
TABS,ioos:station:wmo:42051:1,2014-11-03T18:30:00Z,29.6350,-93.6417,2.0,28.0232,11111222 
TABS,ioos:station:wmo:42051:1,2014-11-03T19:00:00Z,29.6350,-93.6417,2.0,27.9542,11111222 
TABS,ioos:station:wmo:42051:1,2014-11-03T19:30:00Z,29.6350,-93.6417,2.0,27.9039,11111222 
TABS,ioos:station:wmo:42051:1,2014-11-03T20:00:00Z,29.6350,-93.6417,2.0,27.8375,11111222 
TABS,ioos:station:wmo:42051:1,2014-11-03T20:30:00Z,29.6350,-93.6417,2.0,27.7641,11111222 
TABS,ioos:station:wmo:42051:1,2014-11-03T21:00:00Z,29.6350,-93.6417,2.0,27.7389,11111222 
TABS,ioos:station:wmo:42051:1,2014-11-03T21:30:00Z,29.6350,-93.6417,2.0,27.7131,11111222 
TABS,ioos:station:wmo:42051:1,2014-11-03T22:00:00Z,29.6350,-93.6417,2.0,27.6773,11111222 
TABS,ioos:station:wmo:42051:1,2014-11-03T22:30:00Z,29.6350,-93.6417,2.0,27.6032,11111222 
TABS,ioos:station:wmo:42051:1,2014-11-03T23:00:00Z,29.6350,-93.6417,2.0,27.5164,11111222 
TABS,ioos:station:wmo:42051:1,2014-11-03T23:30:00Z,29.6350,-93.6417,2.0,27.4386,11111222 
TABS,ioos:station:wmo:42051:1,2014-11-04T00:00:00Z,29.6350,-93.6417,2.0,27.4441,11111222 
TABS,ioos:station:wmo:42051:1,2014-11-04T00:30:00Z,29.6350,-93.6417,2.0,27.409,11111222 
TABS,ioos:station:wmo:42051:1,2014-11-04T01:00:00Z,29.6350,-93.6417,2.0,27.4274,11111222 
TABS,ioos:station:wmo:42051:1,2014-11-04T01:30:00Z,29.6350,-93.6417,2.0,27.4164,11111222 
TABS,ioos:station:wmo:42051:1,2014-11-04T02:00:00Z,29.6350,-93.6417,2.0,27.3841,11111222 
TABS,ioos:station:wmo:42051:1,2014-11-04T02:30:00Z,29.6350,-93.6417,2.0,27.3655,11111222 
TABS,ioos:station:wmo:42051:1,2014-11-04T03:00:00Z,29.6350,-93.6417,2.0,27.3116,11111222 
TABS,ioos:station:wmo:42051:1,2014-11-04T03:30:00Z,29.6350,-93.6417,2.0,27.376,11111222 
TABS,ioos:station:wmo:42051:1,2014-11-04T04:00:00Z,29.6350,-93.6417,2.0,27.3952,11111222 
TABS,ioos:station:wmo:42051:1,2014-11-04T04:30:00Z,29.6350,-93.6417,2.0,27.3951,11111222 
TABS,ioos:station:wmo:42051:1,2014-11-04T05:00:00Z,29.6350,-93.6417,2.0,27.4328,11111222 
TABS,ioos:station:wmo:42051:1,2014-11-04T05:30:00Z,29.6350,-93.6417,2.0,27.4417,11111222 
TABS,ioos:station:wmo:42051:1,2014-11-04T06:00:00Z,29.6350,-93.6417,2.0,27.3795,11111222 
TABS,ioos:station:wmo:42051:1,2014-11-04T06:30:00Z,29.6350,-93.6417,2.0,27.3553,11111222 
TABS,ioos:station:wmo:42051:1,2014-11-04T07:00:00Z,29.6350,-93.6417,2.0,27.3761,11111222 
TABS,ioos:station:wmo:42051:1,2014-11-04T07:30:00Z,29.6350,-93.6417,2.0,27.3817,11111222 
TABS,ioos:station:wmo:42051:1,2014-11-04T08:00:00Z,29.6350,-93.6417,2.0,27.3492,11111222 
TABS,ioos:station:wmo:42051:1,2014-11-04T08:30:00Z,29.6350,-93.6417,2.0,27.2964,11111222 
TABS,ioos:station:wmo:42051:1,2014-11-04T09:00:00Z,29.6350,-93.6417,2.0,27.3402,11111222 
TABS,ioos:station:wmo:42051:1,2014-11-04T09:30:00Z,29.6350,-93.6417,2.0,27.4939,11111222 
TABS,ioos:station:wmo:42051:1,2014-11-04T10:00:00Z,29.6350,-93.6417,2.0,27.7482,11111222 
TABS,ioos:station:wmo:42051:1,2014-11-04T10:30:00Z,29.6350,-93.6417,2.0,27.6856,11111222 
TABS,ioos:station:wmo:42051:1,2014-11-04T11:00:00Z,29.6350,-93.6417,2.0,27.6438,11111222 
TABS,ioos:station:wmo:42051:1,2014-11-04T11:30:00Z,29.6350,-93.6417,2.0,27.5775,11111222 
TABS,ioos:station:wmo:42051:1,2014-11-04T12:00:00Z,29.6350,-93.6417,2.0,27.5307,11111222 
TABS,ioos:station:wmo:42051:1,2014-11-04T12:30:00Z,29.6350,-93.6417,2.0,27.4673,11111222 
TABS,ioos:station:wmo:42051:1,2014-11-04T13:00:00Z,29.6350,-93.6417,2.0,27.4954,11111222 
TABS,ioos:station:wmo:42051:1,2014-11-04T13:30:00Z,29.6350,-93.6417,2.0,27.5427,11111222 
TABS,ioos:station:wmo:42051:1,2014-11-04T14:00:00Z,29.6350,-93.6417,2.0,27.4851,11111222 
TABS,ioos:station:wmo:42051:1,2014-11-04T14:30:00Z,29.6350,-93.6417,2.0,27.3844,11111222 
TABS,ioos:station:wmo:42051:1,2014-11-04T15:00:00Z,29.6350,-93.6417,2.0,27.4042,11111222 
TABS,ioos:station:wmo:42051:1,2014-11-04T15:30:00Z,29.6350,-93.6417,2.0,27.4944,11111222 
TABS,ioos:station:wmo:42051:1,2014-11-04T16:00:00Z,29.6350,-93.6417,2.0,27.6238,11111222 
TABS,ioos:station:wmo:42051:1,2014-11-04T16:30:00Z,29.6350,-93.6417,2.0,27.536,11111222 
TABS,ioos:station:wmo:42051:1,2014-11-04T17:00:00Z,29.6350,-93.6417,2.0,27.6396,11111222 
TABS,ioos:station:wmo:42051:1,2014-11-04T17:30:00Z,29.6350,-93.6417,2.0,27.7393,11111222 
TABS,ioos:station:wmo:42051:1,2014-11-04T18:00:00Z,29.6350,-93.6417,2.0,27.6182,11111222 
TABS,ioos:station:wmo:42051:1,2014-11-04T18:30:00Z,29.6350,-93.6417,2.0,27.7575,11111222 
TABS,ioos:station:wmo:42051:1,2014-11-04T19:00:00Z,29.6350,-93.6417,2.0,27.6702,11111222 
TABS,ioos:station:wmo:42051:1,2014-11-04T19:30:00Z,29.6350,-93.6417,2.0,27.7337,11111222 
TABS,ioos:station:wmo:42051:1,2014-11-04T20:00:00Z,29.6350,-93.6417,2.0,27.776,11111222 
TABS,ioos:station:wmo:42051:1,2014-11-04T20:30:00Z,29.6350,-93.6417,2.0,27.856,11111222 
TABS,ioos:station:wmo:42051:1,2014-11-04T21:00:00Z,29.6350,-93.6417,2.0,27.9496,11111222 
TABS,ioos:station:wmo:42051:1,2014-11-04T21:30:00Z,29.6350,-93.6417,2.0,27.9298,11111222 
TABS,ioos:station:wmo:42051:1,2014-11-04T22:00:00Z,29.6350,-93.6417,2.0,27.9167,11111222 
TABS,ioos:station:wmo:42051:1,2014-11-04T22:30:00Z,29.6350,-93.6417,2.0,27.8649,11111222 
TABS,ioos:station:wmo:42051:1,2014-11-04T23:00:00Z,29.6350,-93.6417,2.0,27.8209,11111222 
TABS,ioos:station:wmo:42051:1,2014-11-04T23:30:00Z,29.6350,-93.6417,2.0,27.8075,11111222 
TABS,ioos:station:wmo:42051:1,2014-11-05T00:00:00Z,29.6350,-93.6417,2.0,27.8397,11111222 
TABS,ioos:station:wmo:42051:1,2014-11-05T00:30:00Z,29.6350,-93.6417,2.0,27.8392,11111222 
TABS,ioos:station:wmo:42051:1,2014-11-05T01:00:00Z,29.6350,-93.6417,2.0,27.7735,11111222 
TABS,ioos:station:wmo:42051:1,2014-11-05T01:30:00Z,29.6350,-93.6417,2.0,27.699,11111222 
TABS,ioos:station:wmo:42051:1,2014-11-05T02:00:00Z,29.6350,-93.6417,2.0,27.7206,11111222 
TABS,ioos:station:wmo:42051:1,2014-11-05T02:30:00Z,29.6350,-93.6417,2.0,27.7421,11111222 
TABS,ioos:station:wmo:42051:1,2014-11-05T03:00:00Z,29.6350,-93.6417,2.0,27.7957,11111222 
TABS,ioos:station:wmo:42051:1,2014-11-05T03:30:00Z,29.6350,-93.6417,2.0,27.7255,11111222 
TABS,ioos:station:wmo:42051:1,2014-11-05T04:00:00Z,29.6350,-93.6417,2.0,27.7058,11111222 
TABS,ioos:station:wmo:42051:1,2014-11-05T04:30:00Z,29.6350,-93.6417,2.0,27.6828,11111222 
TABS,ioos:station:wmo:42051:1,2014-11-05T05:00:00Z,29.6350,-93.6417,2.0,27.6746,11111222 
TABS,ioos:station:wmo:42051:1,2014-11-05T05:30:00Z,29.6350,-93.6417,2.0,27.67,11111222 
TABS,ioos:station:wmo:42051:1,2014-11-05T06:00:00Z,29.6350,-93.6417,2.0,27.6817,11111222 
TABS,ioos:station:wmo:42051:1,2014-11-05T06:30:00Z,29.6350,-93.6417,2.0,27.6279,11111222 
TABS,ioos:station:wmo:42051:1,2014-11-05T07:00:00Z,29.6350,-93.6417,2.0,27.6238,11111222 
TABS,ioos:station:wmo:42051:1,2014-11-05T07:30:00Z,29.6350,-93.6417,2.0,27.5559,11111222 
TABS,ioos:station:wmo:42051:1,2014-11-05T08:00:00Z,29.6350,-93.6417,2.0,27.5733,11111222 
TABS,ioos:station:wmo:42051:1,2014-11-05T08:30:00Z,29.6350,-93.6417,2.0,27.4675,11111222 
TABS,ioos:station:wmo:42051:1,2014-11-05T09:00:00Z,29.6350,-93.6417,2.0,27.4458,11111222 
TABS,ioos:station:wmo:42051:1,2014-11-05T09:30:00Z,29.6350,-93.6417,2.0,27.3901,11111222 
TABS,ioos:station:wmo:42051:1,2014-11-05T10:00:00Z,29.6350,-93.6417,2.0,27.3457,11111222 
TABS,ioos:station:wmo:42051:1,2014-11-05T10:30:00Z,29.6350,-93.6417,2.0,27.3542,11111222 
TABS,ioos:station:wmo:42051:1,2014-11-05T11:00:00Z,29.6350,-93.6417,2.0,27.3427,11111222 
TABS,ioos:station:wmo:42051:1,2014-11-05T11:30:00Z,29.6350,-93.6417,2.0,27.3326,11111222 
TABS,ioos:station:wmo:42051:1,2014-11-05T12:00:00Z,29.6350,-93.6417,2.0,27.3526,11111222 
TABS,ioos:station:wmo:42051:1,2014-11-05T12:30:00Z,29.6350,-93.6417,2.0,27.3532,11111222 
TABS,ioos:station:wmo:42051:1,2014-11-05T13:00:00Z,29.6350,-93.6417,2.0,27.3562,11111222 
TABS,ioos:station:wmo:42051:1,2014-11-05T13:30:00Z,29.6350,-93.6417,2.0,27.3898,11111222 
TABS,ioos:station:wmo:42051:1,2014-11-05T14:00:00Z,29.6350,-93.6417,2.0,27.3444,11111222 
TABS,ioos:station:wmo:42051:1,2014-11-05T14:30:00Z,29.6350,-93.6417,2.0,27.3658,11111222 
TABS,ioos:station:wmo:42051:1,2014-11-05T15:00:00Z,29.6350,-93.6417,2.0,27.3479,11111222 
TABS,ioos:station:wmo:42051:1,2014-11-05T15:30:00Z,29.6350,-93.6417,2.0,27.3812,11111222 
TABS,ioos:station:wmo:42051:1,2014-11-05T16:00:00Z,29.6350,-93.6417,2.0,27.2904,11111222 
TABS,ioos:station:wmo:42051:1,2014-11-05T16:30:00Z,29.6350,-93.6417,2.0,27.2876,11111222 
TABS,ioos:station:wmo:42051:1,2014-11-05T17:00:00Z,29.6350,-93.6417,2.0,27.2733,11111222 
TABS,ioos:station:wmo:42051:1,2014-11-05T17:30:00Z,29.6350,-93.6417,2.0,27.2625,11111222 
TABS,ioos:station:wmo:42051:1,2014-11-05T18:00:00Z,29.6350,-93.6417,2.0,27.2569,11111222 
TABS,ioos:station:wmo:42051:1,2014-11-05T18:30:00Z,29.6350,-93.6417,2.0,27.2541,11111222 
TABS,ioos:station:wmo:42051:1,2014-11-05T19:00:00Z,29.6350,-93.6417,2.0,27.3013,11111222 
TABS,ioos:station:wmo:42051:1,2014-11-05T19:30:00Z,29.6350,-93.6417,2.0,27.2916,11111222 
TABS,ioos:station:wmo:42051:1,2014-11-05T20:00:00Z,29.6350,-93.6417,2.0,27.2908,11111222 
TABS,ioos:station:wmo:42051:1,2014-11-05T20:30:00Z,29.6350,-93.6417,2.0,27.2187,11111222 
TABS,ioos:station:wmo:42051:1,2014-11-05T21:00:00Z,29.6350,-93.6417,2.0,27.1802,11111222 
TABS,ioos:station:wmo:42051:1,2014-11-05T21:30:00Z,29.6350,-93.6417,2.0,27.1806,11111222 
TABS,ioos:station:wmo:42051:1,2014-11-05T22:00:00Z,29.6350,-93.6417,2.0,27.1758,11111222 
TABS,ioos:station:wmo:42051:1,2014-11-05T22:30:00Z,29.6350,-93.6417,2.0,27.1723,11111222 
TABS,ioos:station:wmo:42051:1,2014-11-05T23:00:00Z,29.6350,-93.6417,2.0,27.2314,11111222 
TABS,ioos:station:wmo:42051:1,2014-11-05T23:30:00Z,29.6350,-93.6417,2.0,27.2641,11111222 
TABS,ioos:station:wmo:42051:1,2014-11-06T00:00:00Z,29.6350,-93.6417,2.0,27.2254,11111222 
TABS,ioos:station:wmo:42051:1,2014-11-06T00:30:00Z,29.6350,-93.6417,2.0,27.2443,11111222 
TABS,ioos:station:wmo:42051:1,2014-11-06T01:00:00Z,29.6350,-93.6417,2.0,27.2375,11111222 
TABS,ioos:station:wmo:42051:1,2014-11-06T01:30:00Z,29.6350,-93.6417,2.0,27.23,11111222 
TABS,ioos:station:wmo:42051:1,2014-11-06T02:00:00Z,29.6350,-93.6417,2.0,27.2238,11111222 
TABS,ioos:station:wmo:42051:1,2014-11-06T02:30:00Z,29.6350,-93.6417,2.0,27.2511,11111222 
TABS,ioos:station:wmo:42051:1,2014-11-06T03:00:00Z,29.6350,-93.6417,2.0,27.2515,11111222 
TABS,ioos:station:wmo:42051:1,2014-11-06T03:30:00Z,29.6350,-93.6417,2.0,27.2031,11111222 
TABS,ioos:station:wmo:42051:1,2014-11-06T04:00:00Z,29.6350,-93.6417,2.0,27.1672,11111222 
TABS,ioos:station:wmo:42051:1,2014-11-06T04:30:00Z,29.6350,-93.6417,2.0,27.1358,11111222 
TABS,ioos:station:wmo:42051:1,2014-11-06T05:00:00Z,29.6350,-93.6417,2.0,27.1261,11111222 
TABS,ioos:station:wmo:42051:1,2014-11-06T05:30:00Z,29.6350,-93.6417,2.0,27.1319,11111222 
TABS,ioos:station:wmo:42051:1,2014-11-06T06:00:00Z,29.6350,-93.6417,2.0,27.111,11111222 
TABS,ioos:station:wmo:42051:1,2014-11-06T06:30:00Z,29.6350,-93.6417,2.0,27.0259,11111222 
TABS,ioos:station:wmo:42051:1,2014-11-06T07:00:00Z,29.6350,-93.6417,2.0,26.9575,11111222 
TABS,ioos:station:wmo:42051:1,2014-11-06T07:30:00Z,29.6350,-93.6417,2.0,26.9328,11111222 
TABS,ioos:station:wmo:42051:1,2014-11-06T08:00:00Z,29.6350,-93.6417,2.0,26.8874,11111222 
TABS,ioos:station:wmo:42051:1,2014-11-06T08:30:00Z,29.6350,-93.6417,2.0,26.8407,11111222 
TABS,ioos:station:wmo:42051:1,2014-11-06T09:00:00Z,29.6350,-93.6417,2.0,26.791,11111222 
TABS,ioos:station:wmo:42051:1,2014-11-06T09:30:00Z,29.6350,-93.6417,2.0,26.7223,11111222 
TABS,ioos:station:wmo:42051:1,2014-11-06T10:00:00Z,29.6350,-93.6417,2.0,26.7687,11111222 
TABS,ioos:station:wmo:42051:1,2014-11-06T10:30:00Z,29.6350,-93.6417,2.0,26.7702,11111222 
TABS,ioos:station:wmo:42051:1,2014-11-06T11:00:00Z,29.6350,-93.6417,2.0,26.6772,11111222 
TABS,ioos:station:wmo:42051:1,2014-11-06T11:30:00Z,29.6350,-93.6417,2.0,26.7266,11111222 
TABS,ioos:station:wmo:42051:1,2014-11-06T12:00:00Z,29.6350,-93.6417,2.0,26.2297,11111222 